Regional Weather Roundup
Issued by NWS Albany, NY

Home | Current Version | Previous Version | Graphics & Text | Print | Product List | Glossary On
Versions: 1 2 3 4 5 6 7 8 9 10 11 12 13 14 15 16 17 18 19 20 21 22 23 24 25 26 27 28 29 30 31 32 33 34 35 36 37 38 39 40 41 42 43 44 45 46 47 48 49 50
000
ASUS41 KALY 280910
RWRALY

NEW YORK STATE HOURLY WEATHER ROUNDUP
NATIONAL WEATHER SERVICE ALBANY NY
500 AM EDT THU AUG 28 2014

NOTE: "FAIR" INDICATES FEW OR NO CLOUDS BELOW 12,000 FEET WITH NO
SIGNIFICANT WEATHER AND/OR NO OBSTRUCTIONS TO VISIBILITY.

NYZ032-033-038>043-046>054-057>066-NYZ062>081-281000-
EAST


CITY           SKY/WX    TMP DP  RH WIND       PRES   REMARKS
ALBANY         PTCLDY    63  58  83 W5        29.90S
GLENS FALLS    CLEAR     57  56  96 CALM      29.88S FOG
POUGHKEEPSIE   CLEAR     60  57  89 CALM      29.87S
NEWBURGH       CLEAR     63  59  88 CALM      29.90S
MONTGOMERY     CLEAR     64  54  69 W5        29.89S
WHITE PLAINS   CLEAR     66  58  75 N8        29.87R
ISLIP          CLEAR     70  59  68 NW14      29.82S
NEW YORK CITY  PTCLDY    74  59  59 N15       29.85R
CENTRAL PARK   PTCLDY    73  55  53 VRB5      29.89R
$$

NYZ005>009-017-018-044>046-055-056-281000-
CENTRAL


CITY           SKY/WX    TMP DP  RH WIND       PRES   REMARKS
FULTON         CLOUDY    60  56  86 W6        29.98R
SYRACUSE       MOCLDY    61  56  83 W8        29.97S
ROME           CLOUDY    60  58  92 W8        29.96S
ELMIRA         MOCLDY    61  55  82 W3        30.00F
BINGHAMTON     PTCLDY    55  54  94 NW9       29.99S
MONTICELLO     CLEAR     57  54  88 NW7       29.96R
$$

NYZ026>034-041>043-281000-
NORTH


CITY           SKY/WX    TMP DP  RH WIND       PRES   REMARKS
WATERTOWN      CLOUDY    63  55  75 NW5       29.96R
FORT DRUM      NOT AVBL
MASSENA        PTCLDY    60  57  89 NW6       29.94R
SARANAC LAKE   CLOUDY    57  55  93 CALM      29.93
PLATTSBURGH    PTCLDY    61  56  83 NW5       29.88S
$$

NYZ001>004-010>016-019>021-281000-
WEST


CITY           SKY/WX    TMP DP  RH WIND       PRES   REMARKS
NIAGARA FALLS  CLEAR     57  52  83 NW8       30.03F
BUFFALO        PTCLDY    57  52  83 NW7       30.04S
DUNKIRK        CLEAR     60  52  74 NW10      30.06S
JAMESTOWN      CLEAR     54  48  82 NW3       30.07S
WELLSVILLE     CLOUDY    57  53  86 NW7       30.06R
ROCHESTER      PTCLDY    54  53  97 SW6       30.02S
PENN YAN       CLOUDY    59  53  80 NW5       30.02R
$$

             KEY
       WCI = WIND CHILL INDEX
       VSB = VISIBILITY
       HX  = HEAT INDEX
$$


USA.gov is the U.S. government's official web portal to all federal, state and local government web resources and services.